Погода в Тесове

Россия / Смоленская область     55°36′56″N   34°29′12″E
темп.,
°C
ветер,
м/с
пор.,
м/с
влажн.,
%
обл.,
%
осадки,
мм/ч
давл.,
гПа
погр.,
м
18 июня, пт
пт1800:00+14вюв2270100 0.0 102613
03:00+13ююв3374100 0.0 102728
06:00+14ююв23841 0.0 102784
09:00+20ююв23725 0.0 1027439
12:00+23ююв33556 0.0 10271113
15:00+24ююв23515 0.0 10261306
18:00+24ююв24625 0.0 10251366
21:00+18ю47810 0.0 1025111
19 июня, сб
сб1900:00+15ююз46850 0.0 102686
03:00+14ююз35930 0.0 102775
06:00+15ююз24900 0.0 1027111
09:00+20ю33730 0.0 1027467
12:00+23ю34580 0.0 1026970
15:00+25ю34530 0.0 10241216
18:00+25ю24630 0.0 1023513
21:00+18ю35780 0.0 102357
20 июня, вс
вс2000:00+16ююз34870 0.0 102448
03:00+15ю33910 0.0 102428
06:00+17ю24930 0.0 1024112
09:00+22ю33790 0.0 1023483
12:00+25ююв33660 0.0 10231149
15:00+26ююв23591 0.0 10211289
18:00+27ююв236558 0.0 1020914
21:00+20ю47805 0.0 1021106
21 июня, пн
пн2100:00+17ю348364 0.0 102156
03:00+16ю2291100 0.0 102226
06:00+18ююв2489100 0.0 1021105
09:00+21юв3476100 0.0 1021354
12:00+25юв456297 0.0 1021845
15:00+27юв455136 0.0 10201290
18:00+26вюв476620 0.0 1019299
21:00+21юв468280 0.0 102083
22 июня, вт
вт2200:00+19юв3894100 0.0 1020132
03:00+18юв369580 0.0 1020115
06:00+19юв369368 0.0 1020159
09:00+24юв47755 0.0 1020461
12:00+27юв57575 0.0 10201141
15:00+30ююв465457 0.0 10201582
18:00+27ю486573 0.0 1020346
21:00+22ююв410832 0.0 1020167